• In Uzbekistan
  • List of Countries
  • For 7 days
  • Water Temperature
  • Satellite Maps
  • Weather Map
  • Weather Widgets
  • user-avatar
    Login

    Hourly Weather Mombasa

    Today, 21 September, Friday

    Time Temperature Precipitation Wind Pressure Humidity
    00:00 +26°C° 0.2 mm 5 mps 761 mmHg 88%
    01:00 +26°C° 0.4 mm 5 mps 761 mmHg 89%
    02:00 +25°C° 0.4 mm 5 mps 760 mmHg 89%
    03:00 +25°C° 0.4 mm 5 mps 760 mmHg 90%
    04:00 +25°C° 0.4 mm 5 mps 760 mmHg 90%
    05:00 +25°C° 0.4 mm 5 mps 760 mmHg 91%
    06:00 +25°C° 0.4 mm 5 mps 760 mmHg 91%
    07:00 +26°C° 0.4 mm 5 mps 761 mmHg 85%
    08:00 +27°C° 0.4 mm 6 mps 761 mmHg 79%
    09:00 +28°C° 0.4 mm 6 mps 762 mmHg 73%
    10:00 +30°C° 0.4 mm 6 mps 761 mmHg 67%
    11:00 +32°C° 0.4 mm 6 mps 761 mmHg 61%
    12:00 +33°C° 0.4 mm 7 mps 761 mmHg 56%
    13:00 +34°C° 0 mm 7 mps 760 mmHg 54%
    14:00 +34°C° 0 mm 7 mps 760 mmHg 52%
    15:00 +34°C° 0 mm 7 mps 759 mmHg 50%
    16:00 +32°C° 0 mm 6 mps 759 mmHg 57%
    17:00 +30°C° 0 mm 6 mps 759 mmHg 63%
    18:00 +29°C° 0 mm 6 mps 759 mmHg 69%
    19:00 +28°C° 0 mm 5 mps 760 mmHg 74%
    20:00 +27°C° 0 mm 5 mps 760 mmHg 78%
    21:00 +26°C° 0 mm 5 mps 761 mmHg 83%
    22:00 +26°C° 0 mm 5 mps 761 mmHg 84%
    23:00 +26°C° 0 mm 5 mps 761 mmHg 86%

    Tomorrow, 22 September, Saturday

    Time Temperature Precipitation Wind Pressure Humidity
    00:00 +26°C° 0 mm 4 mps 761 mmHg 88%
    01:00 +25°C° 0.1 mm 4 mps 761 mmHg 89%
    02:00 +25°C° 0.1 mm 4 mps 760 mmHg 89%
    03:00 +25°C° 0.1 mm 4 mps 760 mmHg 90%
    04:00 +25°C° 0.1 mm 4 mps 760 mmHg 91%
    05:00 +23°C° 0.1 mm 4 mps 760 mmHg 92%
    06:00 +23°C° 0.1 mm 4 mps 760 mmHg 93%
    07:00 +26°C° 0.2 mm 4 mps 761 mmHg 86%
    08:00 +27°C° 0.2 mm 4 mps 761 mmHg 78%
    09:00 +29°C° 0.2 mm 5 mps 762 mmHg 71%
    10:00 +30°C° 0.1 mm 5 mps 762 mmHg 65%
    11:00 +32°C° 0.1 mm 5 mps 761 mmHg 60%
    12:00 +33°C° 0.1 mm 5 mps 761 mmHg 54%
    13:00 +33°C° 0.1 mm 5 mps 761 mmHg 54%
    14:00 +33°C° 0.1 mm 5 mps 760 mmHg 55%
    15:00 +33°C° 0.1 mm 6 mps 759 mmHg 55%
    16:00 +32°C° 0 mm 5 mps 759 mmHg 60%
    17:00 +30°C° 0 mm 5 mps 759 mmHg 65%
    18:00 +28°C° 0 mm 5 mps 759 mmHg 70%
    19:00 +28°C° 0 mm 5 mps 760 mmHg 75%
    20:00 +27°C° 0 mm 4 mps 761 mmHg 81%
    21:00 +26°C° 0 mm 4 mps 761 mmHg 86%
    22:00 +26°C° 0.1 mm 4 mps 761 mmHg 87%
    23:00 +26°C° 0.1 mm 4 mps 761 mmHg 89%

    Day after tomorrow, 23 September, Sunday

    Time Temperature Precipitation Wind Pressure Humidity
    00:00 +25°C° 0.1 mm 5 mps 762 mmHg 90%
    01:00 +25°C° 0.2 mm 5 mps 761 mmHg 91%
    02:00 +25°C° 0.2 mm 5 mps 761 mmHg 92%
    03:00 +25°C° 0.2 mm 5 mps 760 mmHg 92%
    04:00 +25°C° 0.1 mm 5 mps 760 mmHg 93%
    05:00 +23°C° 0.1 mm 4 mps 761 mmHg 93%
    06:00 +23°C° 0.1 mm 4 mps 761 mmHg 94%
    07:00 +26°C° 0.1 mm 4 mps 761 mmHg 85%
    08:00 +28°C° 0.1 mm 5 mps 762 mmHg 76%
    09:00 +29°C° 0.1 mm 5 mps 762 mmHg 68%
    10:00 +30°C° 0.1 mm 5 mps 762 mmHg 62%
    11:00 +33°C° 0.1 mm 5 mps 762 mmHg 56%
    12:00 +34°C° 0.1 mm 5 mps 761 mmHg 50%
    13:00 +34°C° 0 mm 5 mps 761 mmHg 49%
    14:00 +34°C° 0 mm 5 mps 760 mmHg 48%
    15:00 +34°C° 0 mm 5 mps 759 mmHg 47%
    16:00 +33°C° 0 mm 5 mps 759 mmHg 54%
    17:00 +30°C° 0 mm 5 mps 759 mmHg 61%
    18:00 +29°C° 0 mm 5 mps 759 mmHg 68%
    19:00 +28°C° 0 mm 5 mps 760 mmHg 73%
    20:00 +27°C° 0 mm 5 mps 761 mmHg 79%
    21:00 +26°C° 0 mm 5 mps 762 mmHg 85%
    22:00 +26°C° 0.1 mm 5 mps 762 mmHg 87%
    23:00 +26°C° 0.1 mm 5 mps 762 mmHg 89%

    24 September, Monday

    Time Temperature Precipitation Wind Pressure Humidity
    00:00 +25°C° 0.1 mm 4 mps 762 mmHg 91%
    01:00 +25°C° 0.1 mm 4 mps 761 mmHg 92%
    02:00 +25°C° 0.1 mm 4 mps 760 mmHg 93%
    03:00 +25°C° 0.1 mm 4 mps 760 mmHg 94%
    04:00 +23°C° 0.1 mm 4 mps 760 mmHg 94%
    05:00 +24°C° 0.1 mm 3 mps 760 mmHg 94%
    06:00 +24°C° 0.1 mm 3 mps 760 mmHg 95%
    07:00 +26°C° 0.2 mm 4 mps 761 mmHg 86%
    08:00 +28°C° 0.2 mm 4 mps 761 mmHg 78%
    09:00 +29°C° 0.2 mm 4 mps 762 mmHg 69%
    10:00 +32°C° 0.2 mm 4 mps 761 mmHg 63%
    11:00 +33°C° 0.2 mm 4 mps 761 mmHg 58%
    12:00 +34°C° 0.2 mm 4 mps 760 mmHg 53%
    13:00 +34°C° 0 mm 4 mps 760 mmHg 52%
    14:00 +34°C° 0 mm 5 mps 759 mmHg 52%
    15:00 +34°C° 0 mm 5 mps 758 mmHg 52%
    16:00 +33°C° 0 mm 5 mps 758 mmHg 59%
    17:00 +30°C° 0 mm 5 mps 759 mmHg 65%
    18:00 +29°C° 0 mm 5 mps 759 mmHg 72%
    19:00 +28°C° 0 mm 5 mps 759 mmHg 77%
    20:00 +27°C° 0 mm 5 mps 760 mmHg 82%
    21:00 +27°C° 0 mm 5 mps 761 mmHg 87%
    22:00 +26°C° 0.3 mm 5 mps 761 mmHg 88%
    23:00 +26°C° 0.3 mm 5 mps 761 mmHg 90%

    25 September, Tuesday

    Time Temperature Precipitation Wind Pressure Humidity
    00:00 +26°C° 0.3 mm 5 mps 761 mmHg 91%
    01:00 +26°C° 0.5 mm 5 mps 760 mmHg 91%
    02:00 +25°C° 0.5 mm 4 mps 760 mmHg 91%
    03:00 +25°C° 0.5 mm 4 mps 759 mmHg 92%
    04:00 +25°C° 0.6 mm 4 mps 760 mmHg 92%
    05:00 +25°C° 0.6 mm 4 mps 760 mmHg 93%
    06:00 +25°C° 0.6 mm 3 mps 760 mmHg 93%
    07:00 +26°C° 0.8 mm 3 mps 761 mmHg 85%
    08:00 +28°C° 0.8 mm 3 mps 761 mmHg 77%
    09:00 +29°C° 0.8 mm 4 mps 762 mmHg 69%
    10:00 +30°C° 0.6 mm 4 mps 761 mmHg 66%
    11:00 +32°C° 0.6 mm 4 mps 761 mmHg 62%
    12:00 +33°C° 0.6 mm 4 mps 760 mmHg 58%
    13:00 +33°C° 0.2 mm 4 mps 759 mmHg 57%
    14:00 +34°C° 0.2 mm 5 mps 759 mmHg 56%
    15:00 +34°C° 0.2 mm 5 mps 758 mmHg 55%
    16:00 +32°C° 0 mm 5 mps 758 mmHg 61%
    17:00 +30°C° 0 mm 5 mps 759 mmHg 66%
    18:00 +29°C° 0 mm 5 mps 759 mmHg 71%
    19:00 +28°C° 0.1 mm 5 mps 760 mmHg 76%
    20:00 +28°C° 0.1 mm 5 mps 760 mmHg 81%
    21:00 +27°C° 0.1 mm 5 mps 761 mmHg 86%
    22:00 +27°C° 0.2 mm 4 mps 761 mmHg 88%
    23:00 +26°C° 0.2 mm 4 mps 761 mmHg 90%

    26 September, Wednesday

    Time Temperature Precipitation Wind Pressure Humidity
    00:00 +26°C° 0.2 mm 4 mps 761 mmHg 92%
    01:00 +26°C° 0.2 mm 4 mps 760 mmHg 92%
    02:00 +26°C° 0.2 mm 4 mps 759 mmHg 93%
    03:00 +25°C° 0.2 mm 4 mps 759 mmHg 93%
    04:00 +25°C° 0.2 mm 4 mps 759 mmHg 94%
    05:00 +25°C° 0.2 mm 4 mps 760 mmHg 94%
    06:00 +25°C° 0.2 mm 4 mps 760 mmHg 94%
    07:00 +26°C° 0.4 mm 4 mps 760 mmHg 86%
    08:00 +28°C° 0.4 mm 5 mps 761 mmHg 79%
    09:00 +30°C° 0.4 mm 5 mps 761 mmHg 71%
    10:00 +30°C° 1.1 mm 5 mps 761 mmHg 67%
    11:00 +32°C° 1.1 mm 5 mps 760 mmHg 63%
    12:00 +33°C° 1.1 mm 5 mps 760 mmHg 59%
    13:00 +33°C° 1 mm 6 mps 759 mmHg 61%
    14:00 +33°C° 1 mm 6 mps 759 mmHg 62%
    15:00 +32°C° 1 mm 6 mps 758 mmHg 63%
    16:00 +30°C° 0.6 mm 6 mps 759 mmHg 69%
    17:00 +29°C° 0.6 mm 6 mps 759 mmHg 75%
    18:00 +28°C° 0.6 mm 5 mps 759 mmHg 81%
    19:00 +27°C° 0.3 mm 5 mps 760 mmHg 84%
    20:00 +27°C° 0.3 mm 5 mps 760 mmHg 86%
    21:00 +27°C° 0.3 mm 5 mps 761 mmHg 88%
    22:00 +26°C° 0.4 mm 5 mps 761 mmHg 89%
    23:00 +26°C° 0.4 mm 5 mps 760 mmHg 89%
    Show more